This is the latest recevied weather packets stored in our database for station/object WD0REW. If no packets are shown the sender has not sent any weather packets the latest 10 day(s).
| Time | Temp. | Humidity | Pressure | Rain* | Wind** | Luminosity | Snow |
|---|---|---|---|---|---|---|---|
| 1777856061 | 22.22° C | 41% | 1012.5 hPa | 0 mm | - | 5 W/m² | - |
| 1777855759 | 22.78° C | 40% | 1012.7 hPa | 0 mm | - | 7 W/m² | - |
| 1777855457 | 22.78° C | 39% | 1012.5 hPa | 0 mm | - | 8 W/m² | - |
| 1777855153 | 23.33° C | 38% | 1012.5 hPa | 0 mm | - | 9 W/m² | - |
| 1777854850 | 23.33° C | 38% | 1012.6 hPa | 0 mm | - | 11 W/m² | - |
| 1777854546 | 23.33° C | 38% | 1012.4 hPa | 0 mm | - | 16 W/m² | - |
| 1777854243 | 23.89° C | 37% | 1012.5 hPa | 0 mm | - | 23 W/m² | - |
| 1777853941 | 23.89° C | 36% | 1012.6 hPa | 0 mm | - | 30 W/m² | - |
| 1777853638 | 23.89° C | 36% | 1012.7 hPa | 0 mm | - | 37 W/m² | - |
| 1777853335 | 23.89° C | 34% | 1012.8 hPa | 0 mm | - | 39 W/m² | - |
| 1777853032 | 23.89° C | 35% | 1012.8 hPa | 0 mm | - | 40 W/m² | - |
| 1777852729 | 23.89° C | 35% | 1012.9 hPa | 0 mm | - | 36 W/m² | - |
| 1777852427 | 23.89° C | 34% | 1012.8 hPa | 0 mm | - | 32 W/m² | - |
| 1777852124 | 24.44° C | 34% | 1012.6 hPa | 0 mm | - | 27 W/m² | - |
| 1777851822 | 24.44° C | 33% | 1012.7 hPa | 0 mm | - | 29 W/m² | - |
| 1777851519 | 24.44° C | 34% | 1012.7 hPa | 0 mm | - | 37 W/m² | - |
| 1777851215 | 25° C | 34% | 1012.7 hPa | 0 mm | - | 45 W/m² | - |
| 1777850912 | 25° C | 34% | 1012.9 hPa | 0 mm | - | 50 W/m² | - |
| 1777850609 | 25° C | 34% | 1013 hPa | 0 mm | - | 50 W/m² | - |
| 1777850307 | 25° C | 34% | 1012.9 hPa | 0 mm | - | 50 W/m² | - |
| 1777850004 | 25° C | 32% | 1012.7 hPa | 0 mm | - | 54 W/m² | - |
| 1777849700 | 25° C | 32% | 1012.6 hPa | 0 mm | - | 55 W/m² | - |
| 1777849397 | 25° C | 33% | 1012.6 hPa | 0 mm | - | 56 W/m² | - |
| 1777849095 | 25° C | 33% | 1012.9 hPa | 0 mm | - | 57 W/m² | - |
| 1777848790 | 25° C | 32% | 1012.9 hPa | 0 mm | - | 63 W/m² | - |
* Rain latest hour (hover to see other rain measurements)
** Current wind speed in m/s (hover to see current wind gust speed)